Location: Siloam Springs
(36.1881°N, 94.5403°W)
Time: 05:11:53
(UTC-05:00)

CUBESAT XI-V - Pass Details

Date: 05 June 2024
Orbit: 657 x 679 km, 98.2° (Epoch: 16 June)

Event Time Altitude Azimuth Distance (km) Brightness Sun altitude
Exits shadow 04:14:07 28° 260° (W) 1,238 ? -17.8°
Maximum altitude 04:14:14 28° 263° (W) 1,236 ? -17.8°
Drops below altitude 10° 04:18:07 10° 323° (NW) 2,074 ? -17.3°
Sets 04:20:37 0° 335° (NNW) 2,992 ? -16.9°
